Lid_Strength_Index
4 4 3 2 2 3 3 3 3 3 4 4 5 5 5 4 5 5 6 5 7 9 8 6 6 7 6 7 9 6 6 6 7 11 11 11 14 12 13 12 13 14 15 16 15 17 19 8 9 13 10 8 8 7
4 4 3 2 2 2 2 3 3 4 4 4 5 5 5 5 5 5 7 5 6 10 8 5 5 4 4 5 6 5 6 7 7 9 9 9 12 12 12 16 9 15 12 14 13 14 9 8 8 8 7 8 7 7
2 2 3 3 3 2 2 2 3 3 4 4 5 5 5 5 4 6 6 6 9 10 8 6 5 3 3 4 3 7 4 4 5 4 8 8 11 11 14 13 12 9 9 11 12 10 10 8 8 8 7 6 6 5
2 2 2 2 2 2 2 2 2 3 4 5 5 5 4 4 4 4 6 6 8 10 11 7 3 4 2 2 3 3 3 2 3 4 7 9 9 9 12 11 11 10 10 12 11 10 10 7 9 9 8 6 6 5
3 3 2 2 2 2 2 2 3 3 4 5 5 4 4 4 4 4 5 6 7 10 10 8 5 3 3 2 3 2 3 4 5 7 8 9 6 7 10 11 11 10 11 13 13 10 11 11 9 8 7 6 6 6
4 3 3 2 2 2 2 3 3 4 4 4 4 4 4 4 5 6 8 6 6 7 11 10 4 4 3 2 2 3 3 3 4 6 7 6 5 8 11 12 11 10 9 8 10 8 9 8 8 7 7 6 7 7
4 3 3 3 2 2 3 3 3 3 4 3 4 3 4 5 5 8 7 6 6 7 10 10 7 4 4 3 3 3 3 4 5 6 7 6 7 6 9 12 10 9 9 8 7 7 9 9 10 8 6 6 7 7
4 4 4 3 3 3 3 3 3 3 3 3 3 4 4 5 6 7 4 6 6 8 7 10 8 6 3 4 5 3 6 5 5 6 5 7 6 6 11 9 9 9 9 8 8 8 9 9 9 7 7 6 7 8
4 4 4 4 3 4 4 4 4 3 3 3 4 5 5 6 8 6 5 5 6 7 9 8 9 9 3 4 4 4 4 8 4 7 6 6 6 10 8 9 10 10 10 9 8 8 9 10 11 10 9 7 8 9
4 4 4 4 3 4 4 4 4 4 3 4 5 5 6 5 4 5 7 9 10 10 9 10 5 8 5 4 5 5 5 6 9 7 5 7 8 6 6 7 8 9 9 8 10 12 11 11 12 11 11 10 9 8
4 3 3 3 3 3 4 4 4 4 4 5 6 6 3 4 5 6 8 11 10 10 7 7 6 7 4 7 6 4 6 5 10 9 8 8 9 7 5 6 6 7 8 9 10 10 10 11 11 12 12 11 11 9
2 2 2 2 3 3 3 3 3 4 3 5 4 4 3 6 7 8 9 9 10 9 6 6 6 5 4 3 6 5 7 6 11 5 8 10 8 6 5 5 6 6 7 8 9 10 11 11 11 11 12 12 11 11
1 1 1 1 2 2 2 2 2 3 3 4 5 6 7 7 11 11 12 10 10 6 5 5 7 5 5 4 6 6 9 9 5 9 9 8 6 6 5 5 6 6 6 7 8 10 10 11 11 11 12 12 12 13
1 1 1 1 1 2 1 2 2 3 4 7 9 12 9 10 9 8 7 6 5 4 5 5 6 6 5 7 6 10 6 6 10 11 10 7 6 6 5 6 6 7 7 7 7 8 10 11 12 12 12 12 12 14
1 1 1 1 1 1 1 1 1 3 5 8 7 12 9 6 5 4 4 4 4 3 5 5 6 5 6 8 7 8 10 11 9 9 7 6 5 5 5 5 5 5 5 5 5 6 7 8 10 12 13 13 14 14
1 1 1 1 1 1 1 1 3 3 6 7 8 8 6 6 6 5 5 5 3 4 4 5 7 8 9 8 10 10 10 11 8 6 5 5 5 4 4 5 4 4 4 4 4 5 6 6 7 9 10 11 13 14
1 3 1 1 1 1 1 3 4 7 7 8 8 4 5 5 6 5 4 4 2 5 7 7 10 10 6 9 10 7 9 7 5 5 4 4 4 4 4 4 4 4 4 4 4 5 5 6 6 7 10 12 12 13
1 1 0 0 1 1 3 3 4 7 9 7 7 5 5 4 5 5 4 3 4 5 6 8 5 9 10 11 9 6 4 4 4 3 4 3 3 3 4 4 4 4 3 4 4 4 5 5 6 7 9 11 13 13
-0 -0 -0 0 2 4 6 5 4 8 7 5 5 4 4 4 4 4 4 3 3 2 4 6 8 9 8 6 6 4 4 3 4 4 4 3 2 3 3 3 3 3 3 3 4 4 4 5 5 6 8 10 12 12
0 1 1 1 1 4 6 6 4 6 8 5 4 5 5 5 4 4 4 4 4 5 7 7 7 6 5 4 3 3 3 2 3 5 4 3 2 3 3 3 3 3 3 3 3 5 4 5 5 6 6 8 10 11
2 2 2 1 3 4 5 5 6 6 6 6 5 5 5 4 5 5 5 3 5 6 7 5 5 3 2 2 2 2 3 2 3 4 4 4 3 3 3 3 2 3 4 4 4 5 5 4 5 5 6 6 6 8
2 1 3 3 6 6 6 5 6 5 6 6 5 5 6 6 6 5 4 6 6 5 4 4 4 3 4 3 3 2 2 2 2 4 5 5 4 4 4 3 3 4 3 3 3 3 3 4 4 5 5 6 7 7
1 2 4 4 6 7 7 4 7 6 7 7 5 7 7 6 5 3 6 5 4 3 3 3 2 2 3 2 2 2 2 2 3 3 4 4 4 3 3 3 3 3 4 3 2 2 3 6 6 5 5 6 6 7
1 5 7 7 7 9 6 8 6 7 7 7 8 9 8 6 4 6 8 6 4 3 3 3 2 3 3 3 3 3 3 2 4 4 4 4 4 3 2 3 2 2 2 2 3 2 2 3 6 5 5 5 5 6
7 7 7 9 7 8 9 9 8 9 9 8 9 9 7 5 8 8 8 6 4 4 3 3 3 3 4 3 3 3 2 2 3 4 3 2 2 2 3 3 2 2 1 2 3 2 2 2 3 3 3 4 5 6
9 7 8 8 9 9 9 10 10 9 9 9 8 6 5 7 9 10 7 4 4 3 4 3 4 4 4 3 4 3 3 1 2 3 3 2 2 3 3 3 3 3 1 2 2 2 2 2 2 3 3 4 7 5
10 9 6 4 6 6 8 7 6 7 9 10 8 7 8 10 10 7 4 3 3 2 1 1 2 3 3 3 2 1 1 1 1 1 1 1 1 1 1 2 3 2 1 1 1 1 1 2 2 2 3 3 3 4
7 7 9 7 7 6 8 8 8 8 8 6 6 8 9 9 9 6 4 2 2 1 1 1 1 1 2 2 1 1 1 1 1 1 0 0 0 0 0 0 0 7 0 -0 0 0 1 1 2 2 2 2 2 3
8 6 6 7 7 7 8 8 7 5 4 5 6 7 7 4 3 3 3 1 1 2 2 3 2 1 1 1 1 1 1 1 2 3 4 4 3 2 0 0 0 0 0 1 8 5 2 2 2 2 2 2 2 3
7 5 7 7 8 9 7 5 5 3 3 3 3 3 3 3 2 2 1 2 2 3 1 2 2 2 3 3 3 2 1 1 1 2 4 4 3 1 1 1 0 0 1 2 2 3 9 4 6 2 2 2 2 3
5 6 7 7 8 6 5 3 3 3 3 3 3 4 5 4 3 3 2 1 2 1 2 2 2 2 2 2 3 3 4 1 1 2 1 1 2 2 1 1 0 -0 1 1 2 2 3 2 2 2 2 2 3 4
6 7 7 8 7 4 3 4 5 5 4 5 5 4 5 5 6 4 3 2 3 3 4 3 2 2 1 1 1 1 5 1 1 3 2 1 1 1 1 0 0 -0 1 2 3 3 2 2 1 1 2 2 2 3
6 6 6 7 7 6 5 5 6 6 5 6 6 5 5 6 8 4 2 2 2 2 2 1 1 1 1 1 2 2 4 3 7 10 10 10 9 7 4 3 3 2 2 1 0 1 2 2 2 2 2 2 2 2